Location: Salillas
(41.9950°N, 0.2228°W)
Time: 09:11:39
(UTC+00:00)

Cosmos 1758 - Pass Details

Date: 29 March 2020
Orbit: 540 x 563 km, 82.5° (Epoch: 04 June)

Event Time Altitude Azimuth Distance (km) Brightness Sun altitude
Rises 19:43:25 0° 179° (S) 2,734 6.7 -15.3°
Reaches altitude 10° 19:45:35 10° 177° (S) 1,845 5.8 -15.6°
Maximum altitude 19:49:37 65° 95° (E) 622 3.3 -16.3°
Drops below altitude 10° 19:53:41 10° 14° (NNE) 1,863 6.1 -17.0°
Sets 19:55:52 0° 12° (NNE) 2,764 7.0 -17.4°
